| time (UTC) | temp F | wind direction | speed knots | gust knots | rain 1hr in | rain 24hr in | rain mn in | humidity % | barometer mb |
| 20260507223620 | 59 | 212 | 3.5 | 7.8 | 0.00 | 0.10 | 0.00 | 73 | 1006.6 |
| 20260507222119 | 59 | 214 | 3.5 | 7.8 | 0.00 | 0.10 | 0.00 | 72 | 1006.7 |
| 20260507220619 | 60 | 217 | 3.5 | 8.7 | 0.00 | 0.10 | 0.00 | 70 | 1006.8 |
| 20260507215120 | 61 | 221 | 2.6 | 7.0 | 0.00 | 0.10 | 0.00 | 69 | 1006.5 |
| 20260507213620 | 61 | 96 | 1.7 | 4.3 | 0.00 | 0.10 | 0.00 | 72 | 1006.7 |
| 20260507212121 | 60 | 119 | 2.6 | 7.8 | 0.00 | 0.10 | 0.00 | 70 | 1006.6 |
| 20260507210620 | 62 | 105 | 3.5 | 7.8 | 0.00 | 0.10 | 0.00 | 65 | 1006.8 |
| 20260507205120 | 63 | 129 | 2.6 | 5.2 | 0.00 | 0.10 | 0.00 | 67 | 1006.5 |
| 20260507203620 | 64 | 137 | 1.7 | 6.1 | 0.00 | 0.10 | 0.00 | 63 | 1006.4 |
| 20260507202120 | 64 | 129 | 2.6 | 5.2 | 0.00 | 0.10 | 0.00 | 64 | 1006.4 |
| 20260507200621 | 64 | 92 | 3.5 | 7.8 | 0.00 | 0.10 | 0.00 | 63 | 1006.3 |
| 20260507195119 | 64 | 150 | 1.7 | 5.2 | 0.00 | 0.10 | 0.00 | 63 | 1006.5 |
| 20260507193621 | 64 | 222 | 2.6 | 5.2 | 0.00 | 0.10 | 0.00 | 55 | 1006.8 |
| 20260507192119 | 65 | 263 | 0.9 | 3.5 | 0.00 | 0.10 | 0.00 | 59 | 1006.9 |
| 20260507190621 | 63 | 221 | 1.7 | 4.3 | 0.00 | 0.10 | 0.00 | 58 | 1007.2 |
| 20260507185120 | 63 | 226 | 2.6 | 5.2 | 0.00 | 0.10 | 0.00 | 61 | 1007.3 |
| 20260507183620 | 63 | 110 | 2.6 | 6.1 | 0.00 | 0.10 | 0.00 | 60 | 1007.6 |
| 20260507182119 | 63 | 76 | 1.7 | 7.8 | 0.00 | 0.10 | 0.00 | 59 | 1007.7 |
| 20260507180620 | 63 | 214 | 0.9 | 5.2 | 0.00 | 0.10 | 0.00 | 59 | 1007.7 |
| 20260507175120 | 63 | 260 | 2.6 | 7.0 | 0.00 | 0.10 | 0.00 | 65 | 1008.1 |
| 20260507173621 | 62 | 297 | 2.6 | 7.8 | 0.00 | 0.10 | 0.00 | 68 | 1008.0 |
| 20260507172120 | 61 | 282 | 2.6 | 7.0 | 0.00 | 0.10 | 0.00 | 70 | 1008.2 |
| 20260507170621 | 60 | 273 | 3.5 | 9.6 | 0.00 | 0.10 | 0.00 | 73 | 1008.4 |
| 20260507165121 | 60 | 270 | 4.3 | 10.4 | 0.00 | 0.10 | 0.00 | 72 | 1008.3 |
| 20260507163620 | 59 | 270 | 3.5 | 7.8 | 0.00 | 0.10 | 0.00 | 75 | 1008.3 |
| 20260507162121 | 59 | 281 | 4.3 | 9.6 | 0.00 | 0.10 | 0.00 | 75 | 1008.3 |
| 20260507160621 | 59 | 42 | 3.5 | 8.7 | 0.00 | 0.10 | 0.00 | 77 | 1008.4 |
| 20260507155121 | 58 | 40 | 4.3 | 7.8 | 0.00 | 0.10 | 0.00 | 79 | 1008.7 |
| 20260507153620 | 57 | 42 | 3.5 | 7.8 | 0.00 | 0.10 | 0.00 | 80 | 1008.9 |
| 20260507152121 | 56 | 43 | 3.5 | 7.8 | 0.00 | 0.10 | 0.00 | 83 | 1008.8 |
| 20260507150621 | 54 | 45 | 3.5 | 8.7 | 0.00 | 0.10 | 0.00 | 86 | 1009.0 |
| 20260507145120 | 53 | 43 | 3.5 | 7.8 | 0.00 | 0.10 | 0.00 | 88 | 1008.9 |
| 20260507143621 | 52 | 42 | 3.5 | 9.6 | 0.00 | 0.10 | 0.00 | 87 | 1009.0 |
| 20260507142120 | 52 | 43 | 1.7 | 7.8 | 0.00 | 0.10 | 0.00 | 88 | 1009.0 |
| 20260507140620 | 52 | 40 | 2.6 | 5.2 | 0.00 | 0.10 | 0.00 | 90 | 1009.1 |
| 20260507135120 | 51 | 39 | 3.5 | 7.8 | 0.00 | 0.10 | 0.00 | 89 | 1009.0 |
| 20260507133620 | 51 | 40 | 1.7 | 7.0 | 0.00 | 0.10 | 0.00 | 91 | 1008.7 |
| 20260507132121 | 50 | 44 | 1.7 | 4.3 | 0.00 | 0.10 | 0.00 | 92 | 1009.0 |
| 20260507130621 | 50 | 39 | 1.7 | 6.1 | 0.00 | 0.10 | 0.00 | 92 | 1009.4 |
| 20260507125120 | 49 | 38 | 1.7 | 5.2 | 0.00 | 0.10 | 0.00 | 92 | 1009.0 |
| 20260507123621 | 49 | 40 | 1.7 | 6.1 | 0.00 | 0.10 | 0.00 | 91 | 1008.8 |
| 20260507122120 | 49 | 29 | 1.7 | 6.1 | 0.00 | 0.10 | 0.00 | 91 | 1008.8 |
| 20260507120620 | 49 | 35 | 2.6 | 8.7 | 0.00 | 0.10 | 0.00 | 91 | 1008.8 |
| 20260507115121 | 50 | 40 | 2.6 | 9.6 | 0.00 | 0.10 | 0.00 | 91 | 1009.1 |
| 20260507113620 | 50 | 36 | 1.7 | 7.8 | 0.00 | 0.10 | 0.00 | 91 | 1008.5 |
| 20260507112121 | 50 | 31 | 3.5 | 13.9 | 0.00 | 0.10 | 0.00 | 91 | 1008.3 |
| 20260507110620 | 50 | 36 | 3.5 | 12.2 | 0.00 | 0.10 | 0.00 | 92 | 1008.6 |
| 20260507105120 | 50 | 37 | 2.6 | 9.6 | 0.00 | 0.10 | 0.00 | 92 | 1008.4 |
| 20260507103622 | 51 | 38 | 2.6 | 10.4 | 0.00 | 0.10 | 0.00 | 92 | 1008.1 |
| 20260507102121 | 51 | 36 | 3.5 | 7.8 | 0.00 | 0.10 | 0.00 | 92 | 1008.2 |
| 20260507100621 | 52 | 34 | 3.5 | 11.3 | 0.00 | 0.10 | 0.00 | 92 | 1007.4 |
| 20260507095120 | 53 | 34 | 3.5 | 7.8 | 0.00 | 0.10 | 0.00 | 92 | 1007.7 |
| 20260507093621 | 54 | 36 | 2.6 | 9.6 | 0.00 | 0.10 | 0.00 | 93 | 1007.3 |
| 20260507092120 | 54 | 41 | 3.5 | 8.7 | 0.00 | 0.10 | 0.00 | 93 | 1007.6 |
| 20260507090620 | 55 | 40 | 4.3 | 8.7 | 0.00 | 0.10 | 0.00 | 93 | 1008.2 |
| 20260507085121 | 56 | 40 | 2.6 | 10.4 | 0.00 | 0.10 | 0.00 | 93 | 1008.0 |
| 20260507083621 | 56 | 37 | 0.9 | 2.6 | 0.00 | 0.09 | 0.00 | 93 | 1006.9 |
| 20260507082120 | 56 | 34 | 1.7 | 5.2 | 0.00 | 0.09 | 0.00 | 93 | 1006.6 |
| 20260507080622 | 56 | 35 | 0.9 | 3.5 | 0.00 | 0.09 | 0.00 | 93 | 1006.6 |
| 20260507075122 | 56 | 34 | 0.9 | 5.2 | 0.00 | 0.09 | 0.09 | 93 | 1006.9 |
| 20260507073620 | 56 | 34 | 2.6 | 7.8 | 0.00 | 0.09 | 0.09 | 93 | 1007.1 |
| 20260507072121 | 56 | 36 | 0.9 | 5.2 | 0.00 | 0.09 | 0.09 | 93 | 1007.1 |
| 20260507070621 | 56 | 37 | 1.7 | 6.1 | 0.00 | 0.09 | 0.09 | 93 | 1007.0 |
| 20260507065121 | 56 | 37 | 1.7 | 7.8 | 0.00 | 0.09 | 0.09 | 93 | 1007.0 |
| 20260507063620 | 56 | 38 | 2.6 | 7.8 | 0.00 | 0.09 | 0.09 | 93 | 1007.5 |
| 20260507062121 | 56 | 38 | 3.5 | 8.7 | 0.00 | 0.09 | 0.09 | 93 | 1007.3 |
| 20260507060621 | 56 | 40 | 3.5 | 10.4 | 0.00 | 0.09 | 0.09 | 93 | 1007.4 |
| 20260507055120 | 57 | 218 | 4.3 | 11.3 | 0.00 | 0.09 | 0.09 | 93 | 1007.4 |
| 20260507053621 | 57 | 231 | 4.3 | 12.2 | 0.00 | 0.09 | 0.09 | 93 | 1007.7 |
| 20260507052122 | 57 | 43 | 5.2 | 11.3 | 0.00 | 0.09 | 0.09 | 93 | 1008.1 |
| 20260507050621 | 57 | 42 | 6.1 | 13.0 | 0.00 | 0.09 | 0.09 | 93 | 1007.9 |
| 20260507045120 | 57 | 35 | 4.3 | 12.2 | 0.00 | 0.09 | 0.09 | 93 | 1007.9 |
| 20260507043622 | 57 | 35 | 4.3 | 9.6 | 0.00 | 0.09 | 0.09 | 92 | 1008.0 |
| 20260507042121 | 57 | 243 | 4.3 | 11.3 | 0.00 | 0.09 | 0.09 | 92 | 1008.3 |
| 20260507040622 | 58 | 238 | 6.1 | 13.0 | 0.00 | 0.09 | 0.09 | 92 | 1008.4 |
| 20260507035120 | 58 | 231 | 7.0 | 14.8 | 0.00 | 0.09 | 0.09 | 92 | 1008.5 |
| 20260507033621 | 58 | 225 | 6.1 | 14.8 | 0.00 | 0.09 | 0.09 | 92 | 1008.3 |
| 20260507032122 | 58 | 213 | 6.1 | 13.9 | 0.00 | 0.09 | 0.09 | 92 | 1007.8 |
| 20260507030621 | 58 | 218 | 7.0 | 15.6 | 0.00 | 0.09 | 0.09 | 92 | 1007.9 |
| 20260507025121 | 58 | 225 | 7.0 | 18.2 | 0.00 | 0.09 | 0.09 | 92 | 1008.4 |
| 20260507023621 | 58 | 223 | 7.0 | 13.9 | 0.00 | 0.09 | 0.09 | 92 | 1008.6 |
| 20260507022121 | 58 | 221 | 7.0 | 15.6 | 0.00 | 0.09 | 0.09 | 92 | 1008.9 |
| 20260507020622 | 58 | 226 | 7.8 | 18.2 | 0.00 | 0.09 | 0.09 | 92 | 1009.1 |
| 20260507015122 | 58 | 219 | 7.0 | 17.4 | 0.02 | 0.09 | 0.09 | 93 | 1009.4 |
| 20260507013621 | 58 | 219 | 7.0 | 15.6 | 0.02 | 0.08 | 0.08 | 92 | 1009.5 |
| 20260507012122 | 58 | 213 | 7.8 | 19.1 | 0.02 | 0.08 | 0.08 | 92 | 1009.5 |
| 20260507010620 | 58 | 211 | 9.6 | 19.1 | 0.03 | 0.08 | 0.08 | 92 | 1009.4 |
| 20260507005121 | 58 | 212 | 7.8 | 16.5 | 0.02 | 0.06 | 0.06 | 92 | 1009.5 |
| 20260507003621 | 58 | 209 | 8.7 | 23.5 | 0.02 | 0.06 | 0.06 | 92 | 1009.4 |
| 20260507002122 | 58 | 209 | 7.8 | 18.2 | 0.04 | 0.05 | 0.05 | 92 | 1009.4 |
| 20260507000621 | 58 | 208 | 7.8 | 19.1 | 0.05 | 0.05 | 0.05 | 91 | 1009.6 |
| 20260506235121 | 58 | 262 | 8.7 | 18.2 | 0.04 | 0.04 | 0.04 | 91 | 1009.7 |
| 20260506233621 | 59 | 212 | 7.8 | 18.2 | 0.03 | 0.03 | 0.03 | 90 | 1009.8 |
| 20260506232122 | 59 | 212 | 8.7 | 17.4 | 0.00 | 0.00 | 0.00 | 89 | 1010.1 |
| 20260506230621 | 61 | 215 | 8.7 | 23.5 | 0.00 | 0.00 | 0.00 | 85 | 1010.1 |
| 20260506225121 | 61 | 214 | 9.6 | 20.9 | 0.00 | 0.00 | 0.00 | 83 | 1010.2 |